Back to catalog

STARLINK-5018

AliveCommunicationsVLEO
NORAD 53929·PAYLOAD·🇺🇸 United States

Launched Sep 24, 2022 from Cape Canaveral Space Force Station

Loading…

Next Passes (next 24 hours)

TLE

FreshSource: CelesTrak SupGP

Epoch: Sep 14, 2026, 21:23 UTC

1 53929C 22119AV  26257.89145833 -.00028516  00000+0 -91711-3 0  2578
2 53929  53.1592 173.8997 0001495  91.1338 274.5902 15.31711667    11

Track STARLINK-5018 in real time with AllMySat

Download on the App Store